Location: Caltech
(34.1382°N, 118.1253°W)
Time: 21:43:24
(UTC-07:00)

Uribyol 2 - Visible Passes

Search period start: 21 April 2018 00:00
Search period end: 01 May 2018 00:00
Orbit: 781 x 797 km, 98.8° (Epoch: 21 April)

Date Brightness Start Highest point End Pass type
(mag) Time Alt. Az. Time Alt. Az. Time Alt. Az.
21 Apr ? 04:07:08 10° NE 04:11:36 29° E 04:16:03 10° SSE visible
21 Apr ? 05:46:35 10° NNW 05:50:54 28° WNW 05:55:13 10° SW visible
22 Apr ? 03:38:57 10° ENE 03:41:42 14° E 03:44:26 10° SE visible
22 Apr ? 05:16:22 10° N 05:21:24 54° WNW 05:26:25 10° SSW visible
23 Apr ? 04:46:35 10° NNE 04:51:46 75° ESE 04:56:55 10° S visible
24 Apr ? 04:17:15 10° NNE 04:22:01 37° E 04:26:46 10° SSE visible
25 Apr ? 03:48:37 10° NE 03:52:09 18° E 03:55:40 10° SE visible
25 Apr ? 05:26:51 10° N 05:31:43 43° WNW 05:36:34 10° SW visible
26 Apr ? 04:56:56 10° NNE 05:02:07 86° WNW 05:07:18 10° SSW visible
27 Apr ? 04:27:26 10° NNE 04:32:25 47° E 04:37:22 10° S visible
28 Apr ? 03:58:30 10° NE 04:02:35 23° E 04:06:40 10° SSE visible
28 Apr ? 05:37:23 10° N 05:42:01 34° WNW 05:46:39 10° SW visible
29 Apr ? 03:31:13 10° ENE 03:32:38 11° E 03:34:03 10° ESE visible
29 Apr ? 05:07:19 10° N 05:12:28 69° WNW 05:17:35 10° SSW visible
30 Apr ? 04:37:41 10° NNE 04:42:48 60° ESE 04:47:54 10° S visible
